This is the latest recevied weather packets stored in our database for station/object KA1BMF-13. If no packets are shown the sender has not sent any weather packets the latest 10 day(s).
| Time | Temp. | Humidity | Pressure | Rain* | Wind** | Luminosity | Snow |
|---|---|---|---|---|---|---|---|
| 1788488417 | 22.22° C | 98% | 1012 hPa | 0 mm | - | 0 W/m² | - |
| 1788487820 | 22.22° C | 98% | 1012.1 hPa | 0 mm | - | 0 W/m² | - |
| 1788487217 | 22.22° C | 98% | 1012.4 hPa | 0 mm | - | 0 W/m² | - |
| 1788486617 | 22.22° C | 97% | 1012.5 hPa | 0 mm | - | 0 W/m² | - |
| 1788486018 | 22.22° C | 97% | 1012.8 hPa | 0 mm | - | 0 W/m² | - |
| 1788485418 | 22.22° C | 97% | 1012.6 hPa | 0 mm | - | 0 W/m² | - |
| 1788484816 | 22.78° C | 97% | 1012.6 hPa | 0 mm | - | 0 W/m² | - |
| 1788484218 | 22.78° C | 97% | 1012.4 hPa | 0 mm | - | 0 W/m² | - |
| 1788483618 | 22.78° C | 97% | 1012.3 hPa | 0 mm | - | 0 W/m² | - |
| 1788483018 | 22.78° C | 96% | 1012.3 hPa | 0 mm | - | 0 W/m² | - |
| 1788482417 | 22.78° C | 96% | 1012.5 hPa | 0 mm | - | 0 W/m² | - |
| 1788481817 | 22.78° C | 96% | 1012.4 hPa | 0 mm | - | 0 W/m² | - |
| 1788481216 | 22.78° C | 96% | 1012.6 hPa | 0 mm | - | 0 W/m² | - |
| 1788480619 | 23.33° C | 96% | 1012.1 hPa | 0 mm | - | 0 W/m² | - |
| 1788480017 | 23.33° C | 95% | 1011.9 hPa | 0 mm | - | 0 W/m² | - |
| 1788479417 | 23.33° C | 95% | 1011.9 hPa | 0 mm | - | 0 W/m² | - |
| 1788478817 | 23.89° C | 94% | 1011.8 hPa | 0 mm | - | 0 W/m² | - |
| 1788478217 | 23.89° C | 94% | 1011.7 hPa | 0 mm | - | 1 W/m² | - |
| 1788477617 | 23.89° C | 93% | 1011.8 hPa | 0 mm | - | 3 W/m² | - |
| 1788477019 | 23.89° C | 92% | 1011.7 hPa | 0 mm | - | 7 W/m² | - |
| 1788476417 | 24.44° C | 92% | 1011.6 hPa | 0 mm | - | 14 W/m² | - |
| 1788475817 | 24.44° C | 92% | 1011.8 hPa | 0 mm | - | 20 W/m² | - |
| 1788475217 | 24.44° C | 91% | 1011.8 hPa | 0 mm | - | 30 W/m² | - |
| 1788474618 | 24.44° C | 91% | 1012 hPa | 0 mm | - | 46 W/m² | - |
| 1788474018 | 24.44° C | 91% | 1012 hPa | 0 mm | - | 57 W/m² | - |
* Rain latest hour (hover to see other rain measurements)
** Current wind speed in m/s (hover to see current wind gust speed)